Regional Weather Roundup
Issued by NWS Cleveland, OH

Home | Current Version | Previous Version | Graphics & Text | Print | Product List | Glossary On
Versions: 1 2 3 4 5 6 7 8 9 10 11 12 13 14 15 16 17 18 19 20 21 22 23 24 25 26 27 28 29 30 31 32 33 34 35 36 37 38 39 40 41 42 43 44 45 46 47 48 49 50
000
ASUS41 KCLE 171910
RWRCLE
OHIO REGIONAL WEATHER ROUNDUP
NATIONAL WEATHER SERVICE CLEVELAND, OH
300 PM EDT THU AUG 17 2017

NOTE: "FAIR" INDICATES FEW OR NO CLOUDS BELOW 12,000 FEET WITH NO
SIGNIFICANT WEATHER AND/OR OBSTRUCTIONS TO VISIBILITY.

OHZ001>008-015>018-024>027-034-035-043-044-172000-
   NORTHWEST OHIO

CITY           SKY/WX    TMP DP  RH WIND       PRES   REMARKS
DEFIANCE       CLOUDY    79  73  82 S9G18     29.79F
FINDLAY        CLOUDY    77  72  84 SW14      29.83F
TOLEDO EXPRESS LGT RAIN  76  76 100 S5        29.79F FOG
TOLEDO EXEC    LGT RAIN  77  76  96 W9        29.82S FOG
LIMA           LGT RAIN  76  74  93 SW8       29.86R
$$

OHZ009>014-019>023-028>033-038-089-172000-
   NORTHEAST OHIO

CITY           SKY/WX    TMP DP  RH WIND       PRES   REMARKS
CLE-HOPKINS    CLOUDY    89  72  56 SW14G23   29.85F HX  96
CLE-LAKEFRONT  CLOUDY    89  69  51 S14G22    29.82F HX  93
CUY CO. ARPT   NOT AVBL
LORAIN-ELYRIA  CLOUDY    83  69  62 S10       29.84F
ASHTABULA      PTSUNNY   84  72  67 S15       29.88F
AKRON-CANTON   CLOUDY    87  71  58 SW14G20   29.90F HX  93
WOOSTER        MOSUNNY   85  75  72 SW8G16    29.88F HX  93
MANSFIELD      PTSUNNY   83  72  69 SW16G24   29.88F
YOUNGSTOWN     CLOUDY    86  71  60 SW8G18    29.90F HX  91
$$

OHZ042-051>053-060>062-070>072-077>081-172000-
  SOUTHWEST OHIO

CITY           SKY/WX    TMP DP  RH WIND       PRES   REMARKS
CINC-COVINGTON TSTM      79  75  87 W20G32    29.89R
CINC-LUNKEN    PTSUNNY   89  74  60 S18       29.84F HX  98
HAMILTON       TSTM      75  74  96 SW9G22    29.89R FOG
DAYTON         CLOUDY    76  75  97 SW9       29.88S
WRIGHT-PAT AFB TSTM      79  75  89 W15G32    29.87R
DAYTON GENERAL TSTM      75  73  93 CALM      29.88R FOG
WILMINGTON     PTSUNNY   85  72  65 S15G23    29.86F HX  91
$$

OHZ036-037-039>041-045>050-054>059-063>069-073>076-082>088-172000-
  CENTRAL AND SOUTHEAST OHIO

CITY           SKY/WX    TMP DP  RH WIND       PRES   REMARKS
COLUMBUS       PTSUNNY   87  73  62 SW13      29.86F HX  94
OSU AIRPORT    CLOUDY    85  73  67 S16G23    29.86F HX  91
BOLTON FIELD   MOSUNNY   66  73 100 SW15      29.87F
RICKENBACK AFB MOSUNNY   89  72  57 SW15      29.86F HX  96
NEWARK         MOSUNNY   87  71  58 SW15G21   29.88F HX  93
MARION         LGT RAIN  81  74  79 SW7       29.86F
LANCASTER      MOSUNNY   89  73  59 SW12G21   29.89F HX  97
ZANESVILLE     MOSUNNY   89  74  60 SW8       29.89F HX  98
NEW PHILLY     NOT AVBL
$$



USA.gov is the U.S. government's official web portal to all federal, state and local government web resources and services.